Weather History for Edenton, NC

Change the Weather History Date:

Thursday, March 20, 2014

  Actual Average Record
Temperature  
Mean Temperature 55 °F -  
Max Temperature 67 °F 62 °F 85 °F (1945)
Min Temperature 43 °F 39 °F 25 °F (1956)
Degree Days  
Heating Degree Days 10    
Growing Degree Days 5 (Base 50)    
Moisture  
Dew Point 40 °F    
Average Humidity 66    
Maximum Humidity 100    
Minimum Humidity 23    
Precipitation  
Precipitation 0.00 in - - ()
Sea Level Pressure  
Sea Level Pressure 29.95 in    
Wind  
Wind Speed 8 mph (West)    
Max Wind Speed 13 mph    
Max Gust Speed 18 mph    
Visibility 9 miles    
Events      
Averages and records for this station are not official NWS values.
T = Trace of Precipitation, MM = Missing Value Source: NWS Daily Summary

Daily Weather History Graph

Daily Weather History Graph

Search for Another Location

Airport:

Trip Planner

Search our weather history database for the weather conditions in past years. The results will help you decide how hot, cold, wet, or windy it might be!

Date:

Astronomy

Mar. 20, 2014 Rise Set
Actual Time 7:09 AM EDT 7:18 PM EDT
Civil Twilight 6:44 AM EDT 7:43 PM EDT
Nautical Twilight 6:14 AM EDT 8:13 PM EDT
Astronomical Twilight 5:44 AM EDT 8:43 PM EDT
Moon 11:27 PM EDT (3/20) 9:21 AM EDT (3/20)
Length of Visible Light 12h 59m
Length of Day
12h 08m
Waning Gibbous, 84% of the Moon is Illuminated
Mar 20
Waning Gibbous
Mar 23
Last Quarter
Mar 30
New
Apr 7
First Quarter
Apr 15
Full

Hourly Weather History & Observations

Time (EDT) Temp. Dew Point Humidity Pressure Visibility Wind Dir Wind Speed Gust Speed Precip Events Conditions
12:15 AM 48.0 °F 48.0 °F 100% 29.97 in 3.0 mi West 9.2 mph 17.3 mph N/A   Overcast
12:35 AM 47.7 °F 47.7 °F 100% 29.97 in 2.5 mi West 9.2 mph - N/A   Overcast
12:55 AM 47.7 °F 47.5 °F 99% 29.97 in 7.0 mi West 12.7 mph 18.4 mph N/A   Overcast
1:15 AM 47.8 °F 47.5 °F 99% 29.97 in 7.0 mi West 8.1 mph - N/A   Overcast
1:35 AM 48.2 °F 47.5 °F 97% 29.95 in 10.0 mi West 9.2 mph - N/A   Overcast
2:15 AM 47.7 °F 46.4 °F 95% 29.94 in 10.0 mi WSW 4.6 mph - N/A   Scattered Clouds
2:35 AM 47.5 °F 46.4 °F 96% 29.93 in 10.0 mi WSW 6.9 mph - N/A   Clear
2:55 AM 47.3 °F 46.0 °F 95% 29.92 in 10.0 mi SW 8.1 mph - N/A   Clear
3:15 AM 47.3 °F 46.4 °F 97% 29.91 in 7.0 mi SW 9.2 mph - N/A   Clear
3:35 AM 47.3 °F 46.4 °F 97% 29.91 in 7.0 mi SW 8.1 mph - N/A   Clear
3:55 AM 47.3 °F 46.4 °F 97% 29.92 in 7.0 mi WSW 8.1 mph - N/A   Scattered Clouds
4:15 AM 47.3 °F 46.4 °F 97% 29.91 in 7.0 mi WSW 10.4 mph - N/A   Mostly Cloudy
4:35 AM 47.7 °F 46.4 °F 95% 29.91 in 7.0 mi WSW 9.2 mph - N/A   Overcast
4:55 AM 47.3 °F 46.0 °F 95% 29.92 in 7.0 mi WSW 9.2 mph - N/A   Mostly Cloudy
5:15 AM 47.5 °F 46.4 °F 96% 29.92 in 10.0 mi WSW 8.1 mph - N/A   Overcast
5:35 AM 47.5 °F 46.0 °F 95% 29.92 in 10.0 mi West 6.9 mph - N/A   Overcast
5:55 AM 47.3 °F 45.9 °F 95% 29.92 in 10.0 mi WSW 9.2 mph - N/A   Mostly Cloudy
6:15 AM 46.9 °F 45.7 °F 95% 29.93 in 7.0 mi West 8.1 mph - N/A   Scattered Clouds
6:35 AM 46.8 °F 45.7 °F 96% 29.93 in 7.0 mi West 8.1 mph - N/A   Clear
6:55 AM 46.9 °F 45.7 °F 95% 29.94 in 7.0 mi West 8.1 mph - N/A   Clear
7:15 AM 46.6 °F 45.5 °F 96% 29.94 in 7.0 mi WSW 5.8 mph - N/A   Clear
7:35 AM 46.6 °F 45.7 °F 97% 29.94 in 7.0 mi West 6.9 mph - N/A   Clear
7:55 AM 46.8 °F 45.9 °F 97% 29.95 in 5.0 mi West 5.8 mph - N/A   Clear
8:15 AM 47.1 °F 46.2 °F 97% 29.95 in 7.0 mi West 5.8 mph - N/A   Clear
8:35 AM 47.7 °F 46.6 °F 96% 29.96 in 7.0 mi West 4.6 mph - N/A   Clear
8:55 AM 48.4 °F 46.9 °F 95% 29.97 in 10.0 mi West 6.9 mph - N/A   Clear
9:15 AM 49.5 °F 47.1 °F 92% 29.98 in 10.0 mi West 9.2 mph - N/A   Clear
9:35 AM 50.9 °F 47.8 °F 89% 29.98 in 10.0 mi West 6.9 mph - N/A   Clear
9:55 AM 52.7 °F 47.7 °F 83% 29.98 in 10.0 mi WNW 9.2 mph - N/A   Clear
10:15 AM 54.5 °F 46.2 °F 74% 29.99 in 10.0 mi WNW 8.1 mph - N/A   Clear
10:35 AM 55.0 °F 45.7 °F 71% 29.99 in 10.0 mi NW 6.9 mph - N/A   Clear
10:55 AM 56.7 °F 44.6 °F 64% 29.99 in 10.0 mi NW 10.4 mph - N/A   Clear
11:15 AM 57.7 °F 44.2 °F 61% 29.99 in 10.0 mi WNW 9.2 mph - N/A   Clear
11:35 AM 59.0 °F 42.6 °F 55% 29.98 in 10.0 mi WNW 9.2 mph - N/A   Clear
11:55 AM 60.1 °F 41.9 °F 51% 29.97 in 10.0 mi NW 8.1 mph 18.4 mph N/A   Clear
12:15 PM 61.2 °F 41.2 °F 48% 29.97 in 10.0 mi NW 11.5 mph - N/A   Clear
12:35 PM 62.6 °F 41.7 °F 46% 29.97 in 10.0 mi WNW 10.4 mph 16.1 mph N/A   Clear
12:55 PM 62.6 °F 39.9 °F 43% 29.97 in 10.0 mi West 9.2 mph - N/A   Clear
1:15 PM 63.3 °F 39.4 °F 41% 29.96 in 10.0 mi WNW 6.9 mph - N/A   Clear
1:35 PM 64.2 °F 37.0 °F 37% 29.95 in 10.0 mi West 8.1 mph - N/A   Clear
1:55 PM 64.0 °F 38.1 °F 38% 29.95 in 10.0 mi WNW 9.2 mph - N/A   Clear
2:15 PM 64.9 °F 35.8 °F 34% 29.94 in 10.0 mi West 10.4 mph 17.3 mph N/A   Clear
2:35 PM 65.3 °F 35.2 °F 33% 29.93 in 10.0 mi WNW 8.1 mph - N/A   Clear
2:55 PM 65.5 °F 35.6 °F 33% 29.92 in 10.0 mi West 10.4 mph - N/A   Clear
3:15 PM 66.2 °F 35.6 °F 32% 29.92 in 10.0 mi West 10.4 mph - N/A   Clear
3:35 PM 66.2 °F 35.1 °F 32% 29.92 in 10.0 mi West 9.2 mph - N/A   Clear
3:55 PM 66.6 °F 34.3 °F 30% 29.91 in 10.0 mi West 9.2 mph - N/A   Clear
4:15 PM 66.7 °F 31.8 °F 27% 29.91 in 10.0 mi West 10.4 mph - N/A   Clear
4:35 PM 67.1 °F 30.0 °F 25% 29.90 in 10.0 mi WNW 11.5 mph 17.3 mph N/A   Clear
4:55 PM 66.9 °F 28.0 °F 23% 29.90 in 10.0 mi NW 8.1 mph 16.1 mph N/A   Clear
5:15 PM 66.7 °F 28.9 °F 24% 29.90 in 10.0 mi NW 9.2 mph - N/A   Clear
5:35 PM 66.2 °F 28.4 °F 24% 29.91 in 10.0 mi NNW 9.2 mph - N/A   Clear
5:55 PM 65.8 °F 28.6 °F 25% 29.91 in 10.0 mi WNW 6.9 mph - N/A   Clear
6:15 PM 65.3 °F 30.2 °F 27% 29.92 in 10.0 mi NW 8.1 mph - N/A   Clear
6:35 PM 63.9 °F 30.2 °F 28% 29.92 in 10.0 mi NW 6.9 mph - N/A   Clear
6:55 PM 62.8 °F 31.3 °F 31% 29.93 in 10.0 mi NW 5.8 mph - N/A   Clear
7:15 PM 61.0 °F 31.6 °F 33% 29.93 in 10.0 mi NW 4.6 mph - N/A   Clear
7:35 PM 60.1 °F 31.8 °F 34% 29.94 in 10.0 mi NNW 3.5 mph - N/A   Clear
7:55 PM 57.7 °F 32.7 °F 39% 29.95 in 10.0 mi Calm Calm - N/A   Clear
8:15 PM 55.9 °F 32.7 °F 41% 29.95 in 10.0 mi Calm Calm - N/A   Clear
8:35 PM 52.3 °F 36.3 °F 54% 29.96 in 10.0 mi Calm Calm - N/A   Clear
8:55 PM 51.1 °F 35.4 °F 55% 29.97 in 10.0 mi Calm Calm - N/A   Clear
9:15 PM 50.0 °F 32.5 °F 51% 29.97 in 10.0 mi Calm Calm - N/A   Clear
9:35 PM 49.5 °F 32.7 °F 53% 29.97 in 10.0 mi Calm Calm - N/A   Clear
9:55 PM 47.7 °F 39.4 °F 73% 29.98 in 10.0 mi Calm Calm - N/A   Clear
10:15 PM 47.3 °F 37.0 °F 68% 29.98 in 10.0 mi Calm Calm - N/A   Clear
10:35 PM 45.7 °F 36.7 °F 71% 29.99 in 10.0 mi Calm Calm - N/A   Clear
10:55 PM 45.5 °F 36.7 °F 71% 29.99 in 10.0 mi Calm Calm - N/A   Clear
11:15 PM 44.6 °F 36.7 °F 74% 30.00 in 10.0 mi Calm Calm - N/A   Clear
11:35 PM 43.9 °F 35.2 °F 72% 30.01 in 10.0 mi Calm Calm - N/A   Clear
11:55 PM 43.9 °F 36.5 °F 75% 30.01 in 10.0 mi Calm Calm - N/A   Clear